Regional Weather Roundup
Issued by NWS Albany, NY

Home | Current Version | Previous Version | Graphics & Text | Print | Product List | Glossary Off
Versions: 1 2 3 4 5 6 7 8 9 10 11 12 13 14 15 16 17 18 19 20 21 22 23 24 25 26 27 28 29 30 31 32 33 34 35 36 37 38 39 40 41 42 43 44 45 46 47 48 49 50

000
ASUS41 KALY 260310
RWRALY

NEW YORK STATE HOURLY WEATHER ROUNDUP
NATIONAL WEATHER SERVICE ALBANY NY
1100 PM EDT SAT APR 25 2015

NOTE: "FAIR" INDICATES FEW OR NO CLOUDS BELOW 12,000 FEET WITH NO
SIGNIFICANT WEATHER AND/OR NO OBSTRUCTIONS TO VISIBILITY.

NYZ032-033-038>043-046>054-057>066-NYZ062>081-260400-
EAST


CITY           SKY/WX    TMP DP  RH WIND       PRES   REMARKS
ALBANY         MOCLDY    45  27  49 NW7       29.76R
GLENS FALLS    CLOUDY    46  30  53 CALM      29.74F
POUGHKEEPSIE   CLEAR     42  28  57 CALM      29.72S
NEWBURGH       CLEAR     45  28  53 VRB6      29.73S
MONTGOMERY     CLEAR     41  30  65 CALM      29.72S
WHITE PLAINS   CLEAR     48  25  40 N5        29.70S
ISLIP          MOCLDY    41  34  76 CALM      29.70S
NEW YORK CITY  MOCLDY    49  36  61 NE8       29.70S
CENTRAL PARK   PTCLDY    52  29  41 NE8G16    29.72S
$$

NYZ005>009-017-018-044>046-055-056-260400-
CENTRAL


CITY           SKY/WX    TMP DP  RH WIND       PRES   REMARKS
FULTON         CLOUDY    37  27  67 CALM      29.80F
SYRACUSE       CLOUDY    39  28  64 NW5       29.80S
ROME           CLEAR     38  28  67 NW5       29.80S WCI  34
ELMIRA         FAIR      39  26  59 NE7       29.76F WCI  34
BINGHAMTON     CLEAR     37  25  61 N9        29.73F WCI  30
MONTICELLO     CLEAR     37  25  60 NW6       29.73S WCI  33
$$

NYZ026>034-041>043-260400-
NORTH


CITY           SKY/WX    TMP DP  RH WIND       PRES   REMARKS
WATERTOWN      CLOUDY    40  27  59 S5        29.80S
FORT DRUM      NOT AVBL
MASSENA        CLOUDY    47  32  56 NW3       29.78S
SARANAC LAKE   CLOUDY    37  29  72 CALM      29.72S
PLATTSBURGH    CLOUDY    46  31  55 W5        29.72F
$$

NYZ001>004-010>016-019>021-260400-
WEST


CITY           SKY/WX    TMP DP  RH WIND       PRES   REMARKS
NIAGARA FALLS  PTCLDY    38  27  64 CALM      29.80F
BUFFALO        PTCLDY    41  26  55 N5        29.80S
DUNKIRK        PTCLDY    36  28  73 NE5       29.79F WCI  32
JAMESTOWN      CLEAR     37  23  56 N7        29.75F WCI  32
WELLSVILLE     CLEAR     37  24  59 N7        29.76S WCI  32
ROCHESTER      PTCLDY    39  28  64 CALM      29.80F
PENN YAN       CLEAR     35  27  72 CALM      29.79S
$$

             KEY
       WCI = WIND CHILL INDEX
       VSB = VISIBILITY
       HX  = HEAT INDEX
$$


USA.gov is the U.S. government's official web portal to all federal, state and local government web resources and services.